Flag for Norway Weather past 2 weeks in Harstad, Norway

Now
37 °F

Scattered showers. Broken clouds.


Feels Like: 32 °F
Forecast: 32 / 37 °F
Wind: 7 mph from West

Location: Evenes


UV Index: 0 (Low)

Visibility: N/A


Pressure: 29.45 "Hg

Humidity: 87%

Dew point: 34 °F

Location of HarstadLocation

Historic Weather in Harstad

°F

Harstad temperature yesterday

Maximum temperature yesterday: 41 °F (at 1:50 PM)
Minimum temperature yesterday: 28 °F (at 12:50 AM)
Average temperature yesterday: 37 °F

Past Weeks' High & Low Weather Summary

 TemperatureHumidityPressure
High48 °F (Apr 13, 1:50 PM)100% (Apr 5, 5:20 AM)30.09 "Hg (Apr 5, 5:20 AM)
Low12 °F (Apr 7, 4:50 AM)38% (Apr 7, 3:50 PM)29.00 "Hg (Apr 13, 11:50 AM)
Average34 °F75%29.67 "Hg
* Reported Apr 2 2:50 PM — Apr 17 2:20 PM, Harstad, Weather by CustomWeather, © 2014

Note: Actual official high and low records may vary slightly from our data, if they occured in-between our weather recording intervals... More about our weather records

Advertising

Historic Weather Conditions — Data for Previous 24 hours

 ConditionsComfort  
Time TempWeatherWind HumidityBarometerVisibility
2:20 PM
Apr 17
41 °FSprinkles. Partly sunny.8 mph70%29.45 "HgN/A
1:50 PM43 °FScattered clouds.12 mph66%29.42 "HgN/A
12:50 PM43 °FPassing clouds.15 mph66%29.45 "HgN/A
12:04 PM43 °FPassing clouds.14 mph66%29.45 "HgN/A
10:50 AM41 °FScattered clouds.13 mph70%29.45 "HgN/A
9:50 AM41 °FPartly sunny.12 mph76%29.45 "HgN/A
8:50 AM36 °FScattered showers. Broken clouds.6 mph93%29.45 "HgN/A
7:50 AM36 °FRain showers. Fog.12 mph93%29.47 "HgN/A
6:50 AM39 °FSprinkles. Partly sunny.14 mph75%29.45 "HgN/A
5:50 AM39 °FScattered showers. Passing clouds.3 mph70%29.47 "HgN/A
5:20 AM39 °FPartly cloudy.10 mph75%29.47 "HgN/A
4:50 AM39 °FPassing clouds.14 mph75%29.47 "HgN/A
4:20 AM39 °FPassing clouds.9 mph75%29.47 "HgN/A
3:50 AM37 °FPassing clouds.15 mph87%29.50 "HgN/A
3:20 AM39 °FPassing clouds.17 mph81%29.50 "Hg6 mi
2:50 AM37 °FPartly cloudy.17 mph93%29.47 "HgN/A
2:20 AM39 °FRain. Partly cloudy.22 mph81%29.47 "HgN/A
1:50 AM41 °FPassing clouds.18 mph81%29.47 "HgN/A
1:20 AM41 °FPartly cloudy.15 mph81%29.47 "HgN/A
12:50 AM41 °FPartly cloudy.15 mph81%29.47 "Hg6 mi
12:20 AM41 °FDrizzle. Overcast.14 mph81%29.47 "HgN/A
11:50 PM
Apr 16
41 °FPassing clouds.10 mph81%29.50 "HgN/A
11:20 PM41 °FMostly cloudy.12 mph81%29.50 "HgN/A
10:50 PM41 °FLight rain. Overcast.14 mph87%29.47 "HgN/A
10:20 PM41 °FLight rain. Fog.12 mph81%29.47 "HgN/A
9:50 PM39 °FLight rain. Partly sunny.14 mph87%29.47 "HgN/A
8:50 PM41 °FLight rain. Partly sunny.6 mph87%29.47 "HgN/A
7:50 PM41 °FLight rain. Partly sunny.10 mph81%29.50 "HgN/A
6:50 PM41 °FLight rain. Partly sunny.9 mph81%29.53 "HgN/A
5:50 PM41 °FLight rain. Partly sunny.10 mph81%29.56 "HgN/A
4:50 PM41 °FLight rain. Partly sunny.12 mph81%29.59 "HgN/A
3:50 PM39 °FLight rain. Fog.7 mph93%29.62 "HgN/A
Weather by CustomWeather, © 2014

See weather overview